Date,TemperatureHighF,TemperatureAvgF,TemperatureLowF,DewpointHighF,DewpointAvgF,DewpointLowF,HumidityHigh,HumidityAvg,HumidityLow,PressureMaxIn,PressureMinIn,WindSpeedMaxMPH,WindSpeedAvgMPH,GustSpeedMaxMPH,PrecipitationSumIn
2013-1-1,65.8,51.3,42.0,44.3,38.2,20.1,90,65,25,30.27,30.12,15,1,15,0.00
2013-1-2,68.9,54.1,41.6,38.4,30.7,19.5,82,45,18,30.17,30.06,9,2,13,0.00
2013-1-3,74.1,51.6,36.0,44.6,36.4,20.6,85,62,15,30.20,30.09,10,1,13,0.00
2013-1-4,68.8,50.0,36.6,44.3,34.1,18.8,85,61,17,30.32,30.20,8,1,9,0.00
2013-1-5,68.0,49.6,36.1,46.1,37.0,26.4,88,66,24,30.33,30.21,9,1,9,0.00
2013-1-6,58.5,51.3,45.0,52.4,46.3,41.8,97,84,60,30.25,30.05,16,2,16,0.00
2013-1-7,65.7,51.5,39.4,47.9,42.6,34.7,96,76,33,30.14,30.01,10,1,12,0.00
2013-1-8,66.8,52.0,39.0,55.0,46.4,36.0,95,82,58,30.15,30.05,8,1,10,0.00
2013-1-9,67.5,53.6,42.4,55.1,49.3,41.0,96,87,56,30.17,30.04,8,1,9,0.00
2013-1-10,59.7,53.7,47.3,51.6,39.7,26.9,94,62,29,30.13,29.94,20,4,23,0.00
2013-1-11,57.3,49.1,37.2,33.6,27.0,22.9,70,43,28,30.22,30.09,15,4,17,0.00
2013-1-12,60.2,46.2,34.5,36.0,29.7,21.7,79,55,24,30.21,30.10,12,2,12,0.00
2013-1-13,58.2,45.4,33.2,34.7,29.4,20.0,83,57,26,30.21,30.09,11,1,11,0.03
2013-1-14,62.2,47.3,38.7,29.0,14.7,4.5,59,29,13,30.36,30.17,17,4,19,0.01
2013-1-15,62.2,46.6,32.6,37.6,27.0,16.1,77,52,19,30.50,30.36,9,1,11,0.10
2013-1-16,71.2,51.7,35.6,42.6,35.5,28.4,84,59,22,30.39,30.14,8,1,8,0.00
2013-1-17,83.8,60.3,40.6,38.9,28.3,15.2,79,39,8,30.20,30.07,19,2,19,0.00
2013-1-18,86.0,59.3,41.2,39.9,33.6,23.3,74,44,11,30.17,30.06,13,1,15,0.00
2013-1-19,78.6,59.8,42.4,39.4,32.5,23.8,75,41,14,30.21,30.09,8,1,8,0.00
2013-1-20,87.8,60.0,42.0,45.8,30.8,12.2,66,39,7,30.17,30.01,11,1,12,0.00
2013-1-21,81.8,59.5,39.9,37.4,30.6,17.0,71,41,9,30.12,30.01,9,1,12,0.00
2013-1-22,84.3,57.3,39.0,41.4,35.8,16.1,84,52,9,30.13,30.03,9,1,9,0.00
2013-1-23,76.2,62.7,50.6,54.4,40.0,31.1,86,45,25,30.17,30.03,11,1,12,0.01
2013-1-24,72.8,60.4,54.2,58.5,55.0,51.8,95,83,60,30.23,30.12,11,3,13,0.05
2013-1-25,69.7,62.5,59.1,61.8,59.2,57.0,96,89,72,30.14,29.96,15,2,15,0.02
2013-1-26,71.3,60.4,56.0,64.1,58.4,54.6,97,94,74,30.02,29.92,8,2,11,0.01
2013-1-27,62.2,56.1,48.3,56.0,50.5,42.4,97,83,63,30.06,29.99,11,2,12,0.02
2013-1-28,63.7,50.6,39.1,45.2,36.7,28.2,91,62,28,30.21,30.05,15,3,18,0.00
2013-1-29,61.4,49.7,39.2,46.3,41.1,34.8,88,74,45,30.28,30.19,11,1,12,0.00
2013-1-30,70.0,54.0,40.9,49.6,44.5,38.4,92,73,42,30.38,30.24,9,1,10,0.00
2013-1-31,79.9,58.8,42.7,49.2,43.8,39.3,90,63,25,30.27,30.10,8,1,10,0.00